Regional Weather Roundup
Issued by NWS Jackson, KY

Home | Current Version | Previous Version | Graphics & Text | Print | Product List | Glossary On
Versions: 1 2 3 4 5 6 7 8 9 10 11 12 13 14 15 16 17 18 19 20 21 22 23 24 25 26 27 28 29 30 31 32 33 34 35 36 37 38 39 40 41 42 43 44 45 46 47 48 49 50
000
ASUS43 KJKL 180519
RWRJKL

EAST KENTUCKY HOURLY WEATHER ROUNDUP
NATIONAL WEATHER SERVICE JACKSON KY
1200 AM EST THU DEC 18 2014

NOTE: "FAIR" INDICATES FEW OR NO CLOUDS BELOW 12,000 FEET WITH
NO SIGNIFICANT WEATHER AND/OR OBSTRUCTIONS TO VISIBILITY.

* THESE REPORTS ARE NOT UNDER NWS QUALITY CONTROL AND MAY NOT
  REPORT WEATHER SUCH AS PRECIPITATION AND FOG.

KYZ079-080-083-085-087-088-110-112-115-119-120-180600
...EASTERN KENTUCKY...

CITY           SKY/WX    TMP DP  RH WIND       PRES   REMARKS
JACKSON        CLEAR     28  23  81 W3        30.22R
LONDON         CLEAR     27  23  85 CALM      30.22F
SOMERSET*      MOCLDY    27  27 100 CALM      30.26S
MONTICELLO*    CLEAR     24  23  96 CALM      30.27S
MIDDLESBORO*   CLEAR     28  27  94 CALM      30.22F
HARLAN APT*    PTCLDY    30  30 100 CALM      30.20F
HAZARD APT*    PTCLDY    30  27  86 CALM      30.22F
BLACK MTN*       N/A     23  23 100 NW3         N/A
PIKEVILLE APT* CLOUDY    30  27  86 W3        30.21S
BIG SANDY*     CLOUDY    31  27  86 CALM      30.22S
MOREHEAD APT*  CLOUDY    30  23  74 NW3       30.26S
ASHLAND*       CLOUDY    32  19  59 NW6       30.24R WCI  26
$$

KYZ035-036-041-042-044-050-067-078-099-180600
...CENTRAL KENTUCKY...

CITY           SKY/WX    TMP DP  RH WIND       PRES   REMARKS
MT STERLING*   MOCLDY    28  27  93 NW3       30.27R
FLEMING/MASON* CLOUDY    28  21  74 NW8       30.27R WCI  20
DANVILLE*      PTCLDY    25  23  93 CALM      30.26R
RICHMOND*      PTCLDY    27  25  93 CALM      30.25S
LEXINGTON      CLOUDY    28  23  81 NW7       30.25S WCI  21
FRANKFORT      CLOUDY    30  23  75 NW5       30.26S WCI  25
$$

KYZ091>093-OHZ055-061-077-WVZ005-015-034-035-042-180600
...SOUTHERN OHIO/WEST VIRGINIA...

CITY           SKY/WX    TMP DP  RH WIND       PRES   REMARKS
COVINGTON      CLOUDY    28  19  69 NW8       30.27R WCI  20
COLUMBUS       CLOUDY    27  18  69 NW10      30.23S WCI  17
DAYTON         CLOUDY    27  18  69 W7        30.25S WCI  19
WILMINGTON     CLOUDY    25  19  78 NW7       30.25R WCI  17
HUNTINGTON     CLOUDY    31  23  72 NW7       30.23S WCI  24
CHARLESTON     CLOUDY    33  24  69 NW6       30.21S WCI  28
PINEVILLE*     CLOUDY    34  31  86 MISG      30.21F
BECKLEY        CLOUDY    29  23  78 W10       30.11F WCI  20
BLUEFIELD      CLOUDY    30  25  81 W9        30.11S WCI  22
$$

VAZ002-007-008-TNZ017-027-036-066-071-180600
...SOUTHWEST VIRGINIA/EAST TENNESSEE...

CITY           SKY/WX    TMP DP  RH WIND       PRES   REMARKS
WISE*          MOCLDY    30  28  93 NW5       30.15S WCI  25
JONESVILLE*    PTCLDY    30  27  86 CALM      30.21F
ABINGDON*      CLEAR     32  30  92 CALM      30.15S
BRISTOL        CLEAR     29  27  92 CALM      30.18S
KNOXVILLE      PTCLDY    33  32  96 NE5       30.20S WCI  29
OAK RIDGE      CLEAR     33  29  85 CALM      30.22F
CROSSVILLE     PTCLDY    32  27  81 CALM      30.20S
NASHVILLE      PTCLDY    32  28  85 N6        30.27R WCI  26
$$

...KEY TO REMARKS...
VSB - VISIBILITY IN MILES
WCI - WIND CHILL INDEX
HX  - HEAT INDEX

$$



USA.gov is the U.S. government's official web portal to all federal, state and local government web resources and services.